This is the latest recevied weather packets stored in our database for station/object KD7ECD. If no packets are shown the sender has not sent any weather packets the latest 1 day(s).
| Time | Temp. | Humidity | Pressure | Rain* | Wind** | Luminosity | Snow |
|---|---|---|---|---|---|---|---|
| 1778080526 | 12.78° C | 87% | 1023.4 hPa | 0 mm | - | 157 W/m² | - |
| 1778079325 | 12.78° C | 88% | 1023.4 hPa | 0 mm | - | 108 W/m² | - |
| 1778078725 | 12.22° C | 89% | 1023.5 hPa | 0 mm | - | 66 W/m² | - |
| 1778078120 | 12.22° C | 89% | 1023.2 hPa | 0 mm | - | 54 W/m² | - |
| 1778076911 | 12.22° C | 90% | 1022.9 hPa | 0 mm | - | 40 W/m² | - |
| 1778075706 | 11.67° C | 91% | 1022.8 hPa | 0 mm | - | 24 W/m² | - |
| 1778071487 | 11.67° C | 94% | 1022.1 hPa | 0 mm | - | 0 W/m² | - |
| 1778070883 | 11.67° C | 94% | 1022.1 hPa | 0 mm | - | 0 W/m² | - |
| 1778069078 | 11.11° C | 95% | 1022.1 hPa | 0 mm | - | 0 W/m² | - |
| 1778068473 | 11.11° C | 95% | 1022 hPa | 0 mm | - | 0 W/m² | - |
| 1778067868 | 11.11° C | 96% | 1022 hPa | 0 mm | - | 0 W/m² | - |
| 1778067264 | 11.11° C | 96% | 1021.9 hPa | 0 mm | - | 0 W/m² | - |
| 1778065454 | 11.11° C | 96% | 1021.7 hPa | 0 mm | - | 0 W/m² | - |
| 1778064248 | 10.56° C | 96% | 1021.6 hPa | 0 mm | - | 0 W/m² | - |
| 1778061228 | 10.56° C | 96% | 1021.4 hPa | 0 mm | - | 0 W/m² | - |
| 1778060623 | 10.56° C | 96% | 1021.2 hPa | 0 mm | - | 0 W/m² | - |
| 1778057618 | 10.56° C | 96% | 1021.6 hPa | 0 mm | - | 0 W/m² | - |
| 1778057018 | 10.56° C | 95% | 1021.7 hPa | 0 mm | - | 0 W/m² | - |
| 1778056418 | 10.56° C | 95% | 1021.4 hPa | 0 mm | - | 0 W/m² | - |
| 1778055817 | 11.11° C | 94% | 1021.6 hPa | 0 mm | - | 0 W/m² | - |
| 1778054617 | 11.67° C | 94% | 1021.7 hPa | 0 mm | - | 0 W/m² | - |
| 1778054012 | 11.67° C | 94% | 1021.5 hPa | 0 mm | - | 0 W/m² | - |
| 1778053412 | 11.67° C | 94% | 1021.6 hPa | 0 mm | - | 0 W/m² | - |
| 1778052807 | 11.67° C | 94% | 1021.4 hPa | 0 mm | - | 0 W/m² | - |
| 1778051603 | 11.11° C | 93% | 1021.1 hPa | 0 mm | - | 0 W/m² | - |
* Rain latest hour (hover to see other rain measurements)
** Current wind speed in m/s (hover to see current wind gust speed)